Flag for U.S.A. Weather past 2 weeks in Alexandria, Virginia, U.S.A.

Now
43 °F

Scattered clouds.


Feels Like: 41 °F
Forecast: 33 / 51 °F
Wind: 3 mph from Southeast

Location: Reagan National Airport

Current Time: Dec 26, 2014 at 10:55:37 AM

Latest Report: Dec 26, 2014 at 9:52 AM


Visibility: 10 mi

Pressure: 30.36 "Hg

Humidity: 68%

Dew point: 33 °F

Location of AlexandriaLocation

Historic Weather in Alexandria — Graph

°F

Alexandria temperature yesterday

Maximum temperature yesterday: 59 °F (at 1:52 AM)
Minimum temperature yesterday: 46 °F (at 9:52 PM)
Average temperature yesterday: 52 °F

Past Weeks' High & Low Weather Summary

 TemperatureHumidityPressure
High59 °F (Dec 25, 1:52 AM)94% (Dec 24, 9:04 AM)30.38 "Hg (Dec 24, 9:04 AM)
Low31 °F (Dec 20, 6:52 AM)21% (Dec 11, 11:52 PM)29.57 "Hg (Dec 24, 11:52 PM)
Average43 °F62%30.07 "Hg
* Reported Dec 11 8:52 AM — Dec 26 8:52 AM, Alexandria, Weather by CustomWeather, © 2014

Note: Actual official high and low records may vary slightly from our data, if they occured in-between our weather recording intervals... More about our weather records

Advertising

Alexandria weather history for previous 24 hours

 ConditionsComfort  
Time TempWeatherWind HumidityBarometerVisibility
8:52 AM
Dec 26
40 °FSunny.No wind73%30.34 "Hg10 mi
7:52 AM37 °FSunny.5 mph73%30.32 "Hg10 mi
6:52 AM37 °FClear.5 mph73%30.30 "Hg10 mi
5:52 AM38 °FClear.No wind70%30.29 "Hg10 mi
4:52 AM37 °FClear.5 mph73%30.26 "Hg10 mi
3:52 AM41 °FClear.6 mph70%30.25 "Hg10 mi
2:52 AM43 °FClear.No wind56%30.25 "Hg10 mi
1:52 AM43 °FClear.6 mph58%30.24 "Hg10 mi
12:52 AM46 °FClear.13 mph50%30.22 "Hg10 mi
11:52 PM
Dec 25
46 °FClear.12 mph51%30.22 "Hg10 mi
10:52 PM47 °FClear.12 mph50%30.24 "Hg10 mi
9:52 PM46 °FClear.7 mph51%30.22 "Hg10 mi
8:52 PM48 °FClear.12 mph48%30.21 "Hg10 mi
7:52 PM48 °FClear.10 mph48%30.19 "Hg10 mi
6:52 PM49 °FClear.13 mph48%30.15 "Hg10 mi
5:52 PM51 °FClear.No wind42%30.11 "Hg10 mi
4:52 PM52 °FPassing clouds.13 mph43%30.08 "Hg10 mi
3:52 PM55 °FPassing clouds.13 mph40%30.06 "Hg10 mi
2:52 PM57 °FScattered clouds.16 mph36%30.03 "Hg10 mi
1:52 PM56 °FScattered clouds.14 mph37%29.99 "Hg10 mi
12:52 PM55 °FPartly sunny.17 mph39%29.97 "Hg10 mi
11:52 AM54 °FPartly sunny.15 mph38%29.96 "Hg10 mi
10:52 AM54 °FPartly sunny.17 mph40%29.94 "Hg10 mi
Weather by CustomWeather, © 2014

See weather overviewHow to use our weather pages